Location: Praha
(50.0755°N, 14.4378°E)
Time: 06:06:38
(UTC+02:00)

ISS - Visible Passes

Search period start: 27 June 2019 00:00
Search period end: 07 July 2019 00:00
Orbit: 407 x 418 km, 51.6° (Epoch: 27 June)

Date Brightness Start Highest point End Pass type
(mag) Time Alt. Az. Time Alt. Az. Time Alt. Az.
03 Jul -2.4 04:10:40 10° SSW 04:13:30 27° SE 04:16:20 10° E visible
04 Jul -1.8 03:22:24 13° S 03:24:05 18° SE 03:26:25 10° E visible
05 Jul -1.4 02:34:32 12° SE 02:34:42 12° SE 02:35:55 10° ESE visible
05 Jul -3.4 04:07:32 10° SW 04:10:45 51° SSE 04:13:59 10° ENE visible
06 Jul -2.9 03:19:25 19° SSW 03:21:14 35° SSE 03:24:17 10° E visible
